| time (UTC) | temp C | wind direction | speed KPH | gust KPH | rain 1hr cm | rain 24hr cm | rain mn cm | humidity % | barometer mb |
| 20260505193331 | 9 | 60 | 4.8 | 11.3 | 0.00 | 0.03 | 0.03 | 34 | 1017.2 |
| 20260505192830 | 9 | 55 | 1.6 | 11.3 | 0.00 | 0.03 | 0.03 | 35 | 1017.4 |
| 20260505192330 | 8 | 17 | 0.0 | 11.3 | 0.00 | 0.03 | 0.03 | 36 | 1017.4 |
| 20260505191829 | 8 | 358 | 1.6 | 11.3 | 0.00 | 0.03 | 0.03 | 35 | 1017.5 |
| 20260505191329 | 8 | 29 | 4.8 | 11.3 | 0.00 | 0.03 | 0.03 | 35 | 1017.4 |
| 20260505190829 | 8 | 138 | 1.6 | 11.3 | 0.00 | 0.03 | 0.03 | 36 | 1017.3 |
| 20260505190330 | 8 | 16 | 3.2 | 11.3 | 0.00 | 0.03 | 0.03 | 35 | 1017.4 |
| 20260505185830 | 8 | 8 | 1.6 | 11.3 | 0.00 | 0.03 | 0.03 | 36 | 1017.5 |
| 20260505185331 | 8 | 31 | 1.6 | 11.3 | 0.00 | 0.03 | 0.03 | 39 | 1017.5 |
| 20260505184829 | 8 | 13 | 4.8 | 11.3 | 0.00 | 0.03 | 0.03 | 36 | 1017.6 |
| 20260505184329 | 9 | 0 | 0.0 | 11.3 | 0.00 | 0.03 | 0.03 | 36 | 1017.5 |
| 20260505183829 | 9 | 21 | 4.8 | 11.3 | 0.00 | 0.03 | 0.03 | 39 | 1017.5 |
| 20260505183330 | 8 | 0 | 0.0 | 11.3 | 0.00 | 0.03 | 0.03 | 40 | 1017.5 |
| 20260505182830 | 8 | 22 | 3.2 | 11.3 | 0.00 | 0.03 | 0.03 | 40 | 1017.6 |
| 20260505182330 | 8 | 7 | 1.6 | 11.3 | 0.00 | 0.03 | 0.03 | 42 | 1017.6 |
| 20260505181831 | 8 | 42 | 1.6 | 11.3 | 0.00 | 0.03 | 0.03 | 40 | 1017.7 |
| 20260505181330 | 8 | 14 | 4.8 | 11.3 | 0.00 | 0.03 | 0.03 | 39 | 1017.7 |
| 20260505180830 | 8 | 31 | 1.6 | 11.3 | 0.00 | 0.03 | 0.03 | 41 | 1017.6 |
| 20260505180330 | 8 | 33 | 1.6 | 11.3 | 0.00 | 0.03 | 0.03 | 40 | 1017.6 |
| 20260505175829 | 8 | 42 | 0.0 | 11.3 | 0.00 | 0.03 | 0.03 | 42 | 1017.6 |
| 20260505175329 | 7 | 40 | 1.6 | 11.3 | 0.00 | 0.03 | 0.03 | 44 | 1017.5 |
| 20260505174830 | 7 | 11 | 0.0 | 11.3 | 0.00 | 0.03 | 0.03 | 44 | 1017.6 |
| 20260505174330 | 7 | 12 | 0.0 | 11.3 | 0.00 | 0.03 | 0.03 | 44 | 1017.6 |
| 20260505173835 | 6 | 24 | 1.6 | 11.3 | 0.00 | 0.03 | 0.03 | 46 | 1017.6 |
| 20260505173334 | 6 | 41 | 0.0 | 11.3 | 0.00 | 0.03 | 0.03 | 46 | 1017.6 |
| 20260505172835 | 6 | 11 | 1.6 | 11.3 | 0.00 | 0.03 | 0.03 | 48 | 1017.7 |
| 20260505172335 | 5 | 8 | 0.0 | 11.3 | 0.00 | 0.03 | 0.03 | 49 | 1017.7 |
| 20260505171833 | 5 | 29 | 0.0 | 11.3 | 0.00 | 0.03 | 0.03 | 49 | 1017.7 |
| 20260505171334 | 5 | 25 | 1.6 | 11.3 | 0.00 | 0.03 | 0.03 | 51 | 1017.7 |
| 20260505170833 | 5 | 0 | 1.6 | 11.3 | 0.00 | 0.03 | 0.03 | 50 | 1017.7 |
| 20260505170334 | 5 | 38 | 0.0 | 11.3 | 0.00 | 0.03 | 0.03 | 51 | 1017.6 |
| 20260505165835 | 5 | 344 | 1.6 | 11.3 | 0.00 | 0.03 | 0.03 | 52 | 1017.6 |
| 20260505165333 | 5 | 22 | 0.0 | 11.3 | 0.00 | 0.03 | 0.03 | 53 | 1017.6 |
| 20260505164834 | 5 | 7 | 3.2 | 11.3 | 0.00 | 0.03 | 0.03 | 54 | 1017.6 |
| 20260505164334 | 5 | 14 | 3.2 | 11.3 | 0.00 | 0.03 | 0.03 | 53 | 1017.6 |
| 20260505163834 | 5 | 21 | 3.2 | 11.3 | 0.00 | 0.03 | 0.03 | 54 | 1017.6 |
| 20260505163335 | 5 | 5 | 1.6 | 11.3 | 0.00 | 0.03 | 0.03 | 58 | 1017.5 |
| 20260505162833 | 5 | 5 | 0.0 | 11.3 | 0.00 | 0.03 | 0.03 | 58 | 1017.4 |
| 20260505162333 | 5 | 27 | 0.0 | 11.3 | 0.00 | 0.03 | 0.03 | 60 | 1017.4 |
| 20260505161834 | 4 | 28 | 0.0 | 11.3 | 0.00 | 0.03 | 0.03 | 61 | 1017.4 |
| 20260505161334 | 4 | 30 | 3.2 | 11.3 | 0.00 | 0.03 | 0.03 | 59 | 1017.4 |
| 20260505160834 | 4 | 355 | 1.6 | 11.3 | 0.00 | 0.03 | 0.03 | 62 | 1017.5 |
| 20260505160335 | 3 | 28 | 0.0 | 11.3 | 0.00 | 0.03 | 0.03 | 64 | 1017.5 |
| 20260505153334 | 3 | 36 | 1.6 | 11.3 | 0.00 | 0.03 | 0.03 | 66 | 1017.6 |
| 20260505152834 | 3 | 35 | 0.0 | 11.3 | 0.00 | 0.03 | 0.03 | 67 | 1017.5 |
| 20260505152333 | 3 | 35 | 0.0 | 11.3 | 0.00 | 0.03 | 0.03 | 68 | 1017.5 |
| 20260505151833 | 2 | 35 | 0.0 | 11.3 | 0.00 | 0.03 | 0.03 | 68 | 1017.6 |
| 20260505151333 | 2 | 26 | 0.0 | 11.3 | 0.00 | 0.03 | 0.03 | 67 | 1017.6 |
| 20260505150834 | 2 | 26 | 0.0 | 11.3 | 0.00 | 0.03 | 0.03 | 68 | 1017.5 |
| 20260505150334 | 2 | 26 | 0.0 | 11.3 | 0.00 | 0.03 | 0.03 | 70 | 1017.5 |
| 20260505140334 | 2 | 53 | 0.0 | 11.3 | 0.03 | 0.03 | 0.03 | 74 | 1017.3 |
| 20260505124833 | 2 | 25 | 0.0 | 11.3 | 0.00 | 0.00 | 0.00 | 68 | 1017.2 |
| 20260505124333 | 2 | 25 | 0.0 | 11.3 | 0.00 | 0.00 | 0.00 | 68 | 1017.2 |
| 20260505123833 | 2 | 25 | 0.0 | 11.3 | 0.00 | 0.00 | 0.00 | 69 | 1017.1 |
| 20260505123333 | 2 | 25 | 0.0 | 11.3 | 0.00 | 0.00 | 0.00 | 69 | 1017.1 |
| 20260505122833 | 2 | 25 | 0.0 | 11.3 | 0.00 | 0.00 | 0.00 | 69 | 1017.0 |
| 20260505122332 | 1 | 25 | 0.0 | 11.3 | 0.00 | 0.00 | 0.00 | 69 | 1017.0 |
| 20260505121832 | 1 | 25 | 0.0 | 11.3 | 0.00 | 0.00 | 0.00 | 70 | 1016.9 |
| 20260505121332 | 1 | 25 | 0.0 | 11.3 | 0.00 | 0.00 | 0.00 | 70 | 1016.9 |
| 20260505120834 | 1 | 25 | 0.0 | 11.3 | 0.00 | 0.00 | 0.00 | 70 | 1016.9 |
| 20260505120334 | 1 | 25 | 0.0 | 11.3 | 0.00 | 0.00 | 0.00 | 71 | 1016.9 |
| 20260505115834 | 1 | 25 | 0.0 | 11.3 | 0.00 | 0.00 | 0.00 | 71 | 1016.8 |
| 20260505115333 | 1 | 25 | 0.0 | 11.3 | 0.00 | 0.00 | 0.00 | 72 | 1016.7 |
| 20260505114832 | 1 | 24 | 0.0 | 11.3 | 0.00 | 0.00 | 0.00 | 73 | 1016.7 |
| 20260505114333 | 1 | 44 | 0.0 | 11.3 | 0.00 | 0.00 | 0.00 | 72 | 1016.7 |
| 20260505113832 | 1 | 46 | 0.0 | 11.3 | 0.00 | 0.00 | 0.00 | 72 | 1016.7 |
| 20260505113333 | 1 | 8 | 0.0 | 11.3 | 0.00 | 0.00 | 0.00 | 72 | 1016.7 |
| 20260505112832 | 2 | 26 | 0.0 | 11.3 | 0.00 | 0.00 | 0.00 | 72 | 1016.7 |
| 20260505112333 | 2 | 23 | 0.0 | 11.3 | 0.00 | 0.00 | 0.00 | 72 | 1016.6 |
| 20260505111833 | 2 | 9 | 1.6 | 11.3 | 0.00 | 0.00 | 0.00 | 72 | 1016.8 |
| 20260505111334 | 2 | 11 | 0.0 | 11.3 | 0.00 | 0.00 | 0.00 | 71 | 1016.6 |
| 20260505110834 | 2 | 0 | 0.0 | 11.3 | 0.00 | 0.00 | 0.00 | 70 | 1016.6 |
| 20260505110334 | 2 | 18 | 1.6 | 11.3 | 0.00 | 0.00 | 0.00 | 70 | 1016.7 |
| 20260505101832 | 3 | 16 | 1.6 | 9.7 | 0.00 | 0.00 | 0.00 | 69 | 1016.3 |
| 20260505101332 | 3 | 42 | 1.6 | 9.7 | 0.00 | 0.00 | 0.00 | 68 | 1016.3 |
| 20260505100833 | 3 | 22 | 3.2 | 9.7 | 0.00 | 0.00 | 0.00 | 68 | 1016.2 |
| 20260505100333 | 3 | 11 | 1.6 | 9.7 | 0.00 | 0.00 | 0.00 | 68 | 1016.0 |
| 20260505095832 | 3 | 14 | 1.6 | 9.7 | 0.00 | 0.00 | 0.00 | 67 | 1016.1 |
| 20260505095332 | 3 | 8 | 3.2 | 9.7 | 0.00 | 0.00 | 0.00 | 67 | 1016.0 |
| 20260505094832 | 3 | 5 | 1.6 | 9.7 | 0.00 | 0.00 | 0.00 | 66 | 1016.0 |
| 20260505094332 | 3 | 21 | 1.6 | 9.7 | 0.00 | 0.00 | 0.00 | 65 | 1016.0 |
| 20260505093832 | 3 | 0 | 3.2 | 9.7 | 0.00 | 0.00 | 0.00 | 65 | 1015.9 |
| 20260505093332 | 3 | 1 | 3.2 | 9.7 | 0.00 | 0.00 | 0.00 | 64 | 1015.9 |
| 20260505092832 | 3 | 15 | 1.6 | 9.7 | 0.00 | 0.00 | 0.00 | 63 | 1015.9 |
| 20260505092332 | 3 | 355 | 1.6 | 6.4 | 0.00 | 0.00 | 0.00 | 63 | 1015.9 |
| 20260505091833 | 3 | 5 | 1.6 | 6.4 | 0.00 | 0.00 | 0.00 | 62 | 1015.9 |
| 20260505091333 | 4 | 19 | 3.2 | 6.4 | 0.00 | 0.00 | 0.00 | 62 | 1015.9 |
| 20260505090832 | 4 | 1 | 1.6 | 6.4 | 0.00 | 0.00 | 0.00 | 61 | 1015.8 |
| 20260505090332 | 4 | 9 | 0.0 | 6.4 | 0.00 | 0.00 | 0.00 | 60 | 1015.7 |
| 20260505085832 | 4 | 2 | 1.6 | 6.4 | 0.00 | 0.00 | 0.00 | 60 | 1015.7 |
| 20260505085332 | 4 | 9 | 0.0 | 6.4 | 0.00 | 0.00 | 0.00 | 59 | 1015.7 |
| 20260505084833 | 4 | 13 | 0.0 | 6.4 | 0.00 | 0.00 | 0.00 | 59 | 1015.7 |
| 20260505084333 | 4 | 12 | 1.6 | 6.4 | 0.00 | 0.00 | 0.00 | 59 | 1015.7 |
| 20260505083832 | 4 | 0 | 1.6 | 6.4 | 0.00 | 0.00 | 0.00 | 59 | 1015.6 |
| 20260505083333 | 4 | 30 | 0.0 | 6.4 | 0.00 | 0.00 | 0.00 | 59 | 1015.6 |
| 20260505082832 | 4 | 17 | 1.6 | 6.4 | 0.00 | 0.00 | 0.00 | 59 | 1015.6 |
| 20260505082332 | 4 | 42 | 1.6 | 6.4 | 0.00 | 0.00 | 0.00 | 59 | 1015.6 |
| 20260505081832 | 4 | 11 | 0.0 | 6.4 | 0.00 | 0.00 | 0.00 | 59 | 1015.5 |
| 20260505081332 | 4 | 7 | 0.0 | 6.4 | 0.00 | 0.00 | 0.00 | 58 | 1015.5 |
| 20260505080832 | 4 | 355 | 1.6 | 6.4 | 0.00 | 0.00 | 0.00 | 58 | 1015.5 |
| 20260505080333 | 4 | 0 | 1.6 | 6.4 | 0.00 | 0.00 | 0.00 | 57 | 1015.4 |
| 20260505075832 | 5 | 346 | 1.6 | 6.4 | 0.00 | 0.00 | 0.00 | 56 | 1015.5 |
| 20260505075333 | 5 | 345 | 0.0 | 6.4 | 0.00 | 0.00 | 0.00 | 55 | 1015.4 |
| 20260505074831 | 5 | 342 | 0.0 | 6.4 | 0.00 | 0.00 | 0.00 | 54 | 1015.4 |
| 20260505074333 | 5 | 341 | 0.0 | 6.4 | 0.00 | 0.00 | 0.00 | 54 | 1015.3 |
| 20260505073832 | 5 | 341 | 0.0 | 6.4 | 0.00 | 0.00 | 0.00 | 53 | 1015.4 |
| 20260505073332 | 5 | 341 | 0.0 | 6.4 | 0.00 | 0.00 | 0.00 | 53 | 1015.5 |
| 20260505072833 | 5 | 341 | 0.0 | 6.4 | 0.00 | 0.00 | 0.00 | 52 | 1015.4 |
| 20260505072333 | 5 | 341 | 0.0 | 6.4 | 0.00 | 0.00 | 0.00 | 52 | 1015.4 |
| 20260505071832 | 5 | 341 | 0.0 | 6.4 | 0.00 | 0.00 | 0.00 | 51 | 1015.5 |
| 20260505071331 | 5 | 334 | 1.6 | 6.4 | 0.00 | 0.00 | 0.00 | 50 | 1015.4 |
| 20260505070832 | 5 | 45 | 1.6 | 6.4 | 0.00 | 0.03 | 0.00 | 49 | 1015.5 |
| 20260505070331 | 5 | 25 | 0.0 | 6.4 | 0.00 | 0.03 | 0.00 | 47 | 1015.5 |
| 20260505065832 | 6 | 103 | 0.0 | 6.4 | 0.00 | 0.03 | 0.00 | 46 | 1015.4 |
| 20260505065331 | 6 | 106 | 0.0 | 6.4 | 0.00 | 0.03 | 0.00 | 45 | 1015.4 |
| 20260505064832 | 6 | 103 | 0.0 | 6.4 | 0.00 | 0.03 | 0.00 | 44 | 1015.4 |
| 20260505064333 | 6 | 342 | 0.0 | 6.4 | 0.00 | 0.03 | 0.00 | 44 | 1015.3 |
| 20260505063831 | 6 | 329 | 0.0 | 6.4 | 0.00 | 0.03 | 0.00 | 43 | 1015.3 |
| 20260505063332 | 6 | 329 | 1.6 | 6.4 | 0.00 | 0.03 | 0.00 | 42 | 1015.3 |
| 20260505062831 | 6 | 341 | 1.6 | 6.4 | 0.00 | 0.03 | 0.00 | 41 | 1015.4 |
| 20260505062332 | 6 | 6 | 0.0 | 6.4 | 0.00 | 0.03 | 0.00 | 40 | 1015.3 |
| 20260505061833 | 6 | 349 | 1.6 | 6.4 | 0.00 | 0.03 | 0.00 | 40 | 1015.3 |
| 20260505061331 | 6 | 15 | 1.6 | 6.4 | 0.00 | 0.03 | 0.00 | 39 | 1015.2 |
| 20260505060831 | 6 | 13 | 1.6 | 6.4 | 0.00 | 0.03 | 0.00 | 37 | 1015.2 |
| 20260505060332 | 6 | 17 | 0.0 | 4.8 | 0.00 | 0.03 | 0.00 | 37 | 1015.2 |
| 20260505055832 | 6 | 0 | 1.6 | 24.1 | 0.00 | 0.03 | 0.03 | 36 | 1015.2 |
| 20260505055331 | 7 | 19 | 3.2 | 24.1 | 0.00 | 0.03 | 0.03 | 36 | 1015.1 |
| 20260505054831 | 7 | 10 | 4.8 | 24.1 | 0.00 | 0.03 | 0.03 | 36 | 1015.2 |
| 20260505054332 | 7 | 4 | 3.2 | 24.1 | 0.00 | 0.03 | 0.03 | 37 | 1015.1 |
| 20260505053831 | 7 | 14 | 3.2 | 24.1 | 0.00 | 0.03 | 0.03 | 36 | 1015.0 |
| 20260505053331 | 7 | 24 | 1.6 | 24.1 | 0.00 | 0.03 | 0.03 | 36 | 1015.0 |
| 20260505052832 | 7 | 20 | 0.0 | 24.1 | 0.00 | 0.03 | 0.03 | 35 | 1015.0 |
| 20260505052332 | 7 | 14 | 1.6 | 24.1 | 0.00 | 0.03 | 0.03 | 35 | 1014.9 |
| 20260505051832 | 7 | 11 | 1.6 | 24.1 | 0.00 | 0.03 | 0.03 | 35 | 1014.8 |
| 20260505051332 | 7 | 9 | 1.6 | 24.1 | 0.00 | 0.03 | 0.03 | 35 | 1014.7 |
| 20260505050831 | 7 | 12 | 0.0 | 24.1 | 0.00 | 0.03 | 0.03 | 35 | 1014.7 |
| 20260505050332 | 7 | 357 | 3.2 | 24.1 | 0.00 | 0.03 | 0.03 | 35 | 1014.6 |
| 20260505041332 | 8 | 44 | 0.0 | 24.1 | 0.00 | 0.03 | 0.03 | 35 | 1014.0 |
| 20260505040832 | 8 | 30 | 0.0 | 24.1 | 0.00 | 0.03 | 0.03 | 35 | 1014.0 |
| 20260505040331 | 8 | 8 | 4.8 | 24.1 | 0.00 | 0.03 | 0.03 | 34 | 1013.9 |
| 20260505035831 | 8 | 351 | 0.0 | 24.1 | 0.00 | 0.03 | 0.03 | 35 | 1013.9 |
| 20260505035331 | 8 | 19 | 3.2 | 24.1 | 0.00 | 0.03 | 0.03 | 35 | 1013.8 |
| 20260505034831 | 8 | 34 | 0.0 | 24.1 | 0.00 | 0.03 | 0.03 | 35 | 1013.7 |
| 20260505034331 | 8 | 22 | 0.0 | 24.1 | 0.00 | 0.03 | 0.03 | 35 | 1013.7 |
| 20260505033831 | 8 | 35 | 1.6 | 24.1 | 0.00 | 0.03 | 0.03 | 34 | 1013.6 |
| 20260505033331 | 8 | 10 | 1.6 | 24.1 | 0.00 | 0.03 | 0.03 | 34 | 1013.5 |
| 20260505032831 | 8 | 11 | 1.6 | 24.1 | 0.00 | 0.03 | 0.03 | 34 | 1013.5 |
| 20260505032331 | 8 | 13 | 3.2 | 24.1 | 0.00 | 0.03 | 0.03 | 34 | 1013.4 |
| 20260505031831 | 8 | 356 | 3.2 | 24.1 | 0.00 | 0.03 | 0.03 | 33 | 1013.4 |
| 20260505031331 | 8 | 26 | 3.2 | 24.1 | 0.00 | 0.03 | 0.03 | 34 | 1013.2 |
| 20260505030831 | 8 | 28 | 1.6 | 24.1 | 0.00 | 0.03 | 0.03 | 34 | 1013.2 |
| 20260505030332 | 9 | 26 | 4.8 | 24.1 | 0.00 | 0.03 | 0.03 | 33 | 1013.2 |
| 20260505025832 | 9 | 13 | 3.2 | 24.1 | 0.00 | 0.03 | 0.03 | 33 | 1013.1 |
| 20260505025331 | 9 | 30 | 3.2 | 24.1 | 0.00 | 0.03 | 0.03 | 33 | 1013.0 |
| 20260505024832 | 9 | 3 | 3.2 | 24.1 | 0.00 | 0.03 | 0.03 | 33 | 1013.0 |
| 20260505024331 | 9 | 4 | 3.2 | 24.1 | 0.00 | 0.03 | 0.03 | 33 | 1012.9 |
| 20260505023831 | 9 | 18 | 3.2 | 24.1 | 0.00 | 0.03 | 0.03 | 32 | 1012.8 |
| 20260505023331 | 9 | 0 | 3.2 | 24.1 | 0.00 | 0.03 | 0.03 | 32 | 1012.8 |
| 20260505022831 | 10 | 21 | 3.2 | 24.1 | 0.00 | 0.03 | 0.03 | 31 | 1012.7 |
| 20260505022332 | 10 | 30 | 1.6 | 24.1 | 0.00 | 0.03 | 0.03 | 31 | 1012.6 |
| 20260505021832 | 10 | 20 | 1.6 | 24.1 | 0.00 | 0.03 | 0.03 | 31 | 1012.6 |
| 20260505021330 | 10 | 24 | 4.8 | 24.1 | 0.00 | 0.03 | 0.03 | 31 | 1012.6 |
| 20260505020832 | 10 | 14 | 3.2 | 24.1 | 0.00 | 0.03 | 0.03 | 30 | 1012.6 |
| 20260505020330 | 10 | 1 | 3.2 | 24.1 | 0.00 | 0.03 | 0.03 | 31 | 1012.5 |
| 20260505015831 | 10 | 10 | 3.2 | 24.1 | 0.00 | 0.03 | 0.03 | 30 | 1012.4 |
| 20260505015331 | 10 | 350 | 4.8 | 24.1 | 0.00 | 0.03 | 0.03 | 29 | 1012.4 |
| 20260505014832 | 10 | 15 | 8.0 | 24.1 | 0.00 | 0.03 | 0.03 | 29 | 1012.2 |
| 20260505014331 | 10 | 1 | 4.8 | 24.1 | 0.00 | 0.03 | 0.03 | 29 | 1012.2 |
| 20260505013832 | 10 | 22 | 3.2 | 24.1 | 0.00 | 0.03 | 0.03 | 28 | 1012.1 |
| 20260505013331 | 10 | 13 | 4.8 | 24.1 | 0.00 | 0.03 | 0.03 | 28 | 1012.1 |
| 20260505012832 | 11 | 9 | 1.6 | 24.1 | 0.00 | 0.03 | 0.03 | 28 | 1012.1 |
| 20260505012332 | 11 | 4 | 4.8 | 24.1 | 0.00 | 0.03 | 0.03 | 27 | 1012.0 |
| 20260505011831 | 11 | 11 | 4.8 | 24.1 | 0.00 | 0.03 | 0.03 | 28 | 1011.9 |
| 20260505011331 | 11 | 1 | 3.2 | 24.1 | 0.00 | 0.03 | 0.03 | 27 | 1011.8 |
| 20260505010830 | 11 | 354 | 3.2 | 24.1 | 0.00 | 0.03 | 0.03 | 27 | 1011.9 |
| 20260505010331 | 11 | 19 | 4.8 | 24.1 | 0.00 | 0.03 | 0.03 | 27 | 1011.9 |
| 20260505005831 | 11 | 4 | 8.0 | 24.1 | 0.00 | 0.03 | 0.03 | 27 | 1011.9 |
| 20260505005331 | 11 | 358 | 3.2 | 24.1 | 0.00 | 0.03 | 0.03 | 26 | 1011.9 |
| 20260505004832 | 11 | 13 | 3.2 | 24.1 | 0.00 | 0.03 | 0.03 | 26 | 1012.0 |
| 20260505004332 | 11 | 359 | 3.2 | 24.1 | 0.00 | 0.03 | 0.03 | 26 | 1011.9 |
| 20260505003832 | 11 | 18 | 1.6 | 24.1 | 0.00 | 0.03 | 0.03 | 26 | 1012.0 |
| 20260505003332 | 11 | 17 | 8.0 | 24.1 | 0.00 | 0.03 | 0.03 | 26 | 1012.0 |
| 20260505002832 | 11 | 2 | 9.7 | 24.1 | 0.00 | 0.03 | 0.03 | 26 | 1012.0 |
| 20260505002332 | 12 | 15 | 3.2 | 24.1 | 0.00 | 0.03 | 0.03 | 26 | 1012.0 |
| 20260505001831 | 12 | 9 | 8.0 | 24.1 | 0.00 | 0.03 | 0.03 | 26 | 1011.9 |
| 20260505001331 | 12 | 5 | 4.8 | 24.1 | 0.00 | 0.03 | 0.03 | 26 | 1011.9 |
| 20260505000831 | 12 | 16 | 4.8 | 24.1 | 0.00 | 0.03 | 0.03 | 26 | 1011.8 |
| 20260505000331 | 12 | 13 | 1.6 | 24.1 | 0.00 | 0.03 | 0.03 | 27 | 1011.8 |
| 20260504235831 | 12 | 12 | 1.6 | 24.1 | 0.00 | 0.03 | 0.03 | 26 | 1011.8 |
| 20260504235331 | 12 | 29 | 3.2 | 24.1 | 0.00 | 0.03 | 0.03 | 26 | 1011.7 |
| 20260504234831 | 12 | 1 | 3.2 | 24.1 | 0.00 | 0.03 | 0.03 | 27 | 1011.7 |
| 20260504234331 | 12 | 343 | 4.8 | 24.1 | 0.00 | 0.03 | 0.03 | 26 | 1011.7 |
| 20260504233831 | 12 | 15 | 3.2 | 24.1 | 0.00 | 0.03 | 0.03 | 26 | 1011.7 |
| 20260504233331 | 12 | 13 | 3.2 | 24.1 | 0.00 | 0.03 | 0.03 | 26 | 1011.7 |
| 20260504232831 | 12 | 51 | 0.0 | 24.1 | 0.00 | 0.03 | 0.03 | 27 | 1011.6 |
| 20260504232331 | 12 | 358 | 1.6 | 24.1 | 0.00 | 0.03 | 0.03 | 27 | 1011.7 |
| 20260504231830 | 12 | 9 | 4.8 | 24.1 | 0.00 | 0.03 | 0.03 | 25 | 1011.5 |
| 20260504231330 | 12 | 11 | 9.7 | 24.1 | 0.00 | 0.03 | 0.03 | 25 | 1011.6 |
| 20260504230831 | 12 | 24 | 4.8 | 24.1 | 0.00 | 0.03 | 0.03 | 25 | 1011.5 |
| 20260504230331 | 12 | 6 | 3.2 | 24.1 | 0.00 | 0.03 | 0.03 | 26 | 1011.5 |
| 20260504225831 | 12 | 357 | 4.8 | 24.1 | 0.00 | 0.03 | 0.03 | 25 | 1011.6 |
| 20260504225331 | 12 | 7 | 8.0 | 24.1 | 0.00 | 0.03 | 0.03 | 25 | 1011.5 |
| 20260504224831 | 12 | 18 | 0.0 | 24.1 | 0.00 | 0.03 | 0.03 | 26 | 1011.4 |
| 20260504224331 | 12 | 21 | 1.6 | 24.1 | 0.00 | 0.03 | 0.03 | 26 | 1011.3 |
| 20260504223831 | 12 | 350 | 0.0 | 24.1 | 0.00 | 0.03 | 0.03 | 26 | 1011.3 |
| 20260504223331 | 12 | 34 | 3.2 | 24.1 | 0.00 | 0.03 | 0.03 | 26 | 1011.2 |
| 20260504222831 | 12 | 0 | 1.6 | 24.1 | 0.00 | 0.03 | 0.03 | 25 | 1011.4 |
| 20260504222330 | 12 | 0 | 4.8 | 24.1 | 0.00 | 0.03 | 0.03 | 25 | 1011.5 |
| 20260504221831 | 12 | 5 | 3.2 | 24.1 | 0.00 | 0.03 | 0.03 | 25 | 1011.4 |
| 20260504221330 | 12 | 19 | 0.0 | 24.1 | 0.00 | 0.03 | 0.03 | 26 | 1011.4 |
| 20260504220830 | 12 | 17 | 1.6 | 24.1 | 0.00 | 0.03 | 0.03 | 25 | 1011.5 |
| 20260504220331 | 12 | 11 | 0.0 | 24.1 | 0.00 | 0.03 | 0.03 | 25 | 1011.7 |
| 20260504215830 | 12 | 17 | 1.6 | 24.1 | 0.00 | 0.03 | 0.03 | 25 | 1011.7 |
| 20260504215330 | 12 | 0 | 1.6 | 24.1 | 0.00 | 0.03 | 0.03 | 25 | 1011.6 |
| 20260504214830 | 12 | 18 | 3.2 | 24.1 | 0.00 | 0.03 | 0.03 | 26 | 1011.7 |
| 20260504214330 | 12 | 14 | 1.6 | 24.1 | 0.00 | 0.03 | 0.03 | 26 | 1011.7 |
| 20260504213831 | 12 | 358 | 4.8 | 24.1 | 0.00 | 0.03 | 0.03 | 25 | 1011.7 |
| 20260504213331 | 12 | 11 | 9.7 | 24.1 | 0.00 | 0.03 | 0.03 | 24 | 1011.8 |
| 20260504212831 | 12 | 358 | 3.2 | 24.1 | 0.00 | 0.03 | 0.03 | 25 | 1011.7 |
| 20260504212331 | 12 | 54 | 3.2 | 24.1 | 0.00 | 0.03 | 0.03 | 25 | 1011.8 |
| 20260504211831 | 12 | 351 | 3.2 | 24.1 | 0.00 | 0.03 | 0.03 | 25 | 1011.8 |
| 20260504211331 | 12 | 349 | 8.0 | 24.1 | 0.00 | 0.03 | 0.03 | 24 | 1011.9 |
| 20260504210831 | 12 | 23 | 1.6 | 24.1 | 0.00 | 0.03 | 0.03 | 25 | 1011.8 |
| 20260504210331 | 12 | 343 | 3.2 | 24.1 | 0.00 | 0.03 | 0.03 | 25 | 1011.7 |
| 20260504205831 | 12 | 28 | 0.0 | 24.1 | 0.00 | 0.03 | 0.03 | 26 | 1011.8 |
| 20260504205330 | 12 | 3 | 1.6 | 24.1 | 0.00 | 0.03 | 0.03 | 26 | 1011.8 |
| 20260504204830 | 13 | 358 | 3.2 | 24.1 | 0.00 | 0.03 | 0.03 | 25 | 1011.7 |
| 20260504204330 | 13 | 355 | 1.6 | 24.1 | 0.00 | 0.03 | 0.03 | 25 | 1011.7 |
| 20260504203831 | 13 | 20 | 3.2 | 24.1 | 0.00 | 0.03 | 0.03 | 25 | 1011.8 |
| 20260504203330 | 13 | 342 | 1.6 | 24.1 | 0.00 | 0.03 | 0.03 | 26 | 1011.8 |
| 20260504202831 | 13 | 333 | 8.0 | 24.1 | 0.00 | 0.03 | 0.03 | 25 | 1011.8 |
| 20260504202330 | 13 | 82 | 1.6 | 24.1 | 0.00 | 0.03 | 0.03 | 26 | 1011.8 |
| 20260504201830 | 13 | 0 | 3.2 | 24.1 | 0.00 | 0.03 | 0.03 | 25 | 1011.8 |
| 20260504201331 | 12 | 338 | 4.8 | 24.1 | 0.00 | 0.03 | 0.03 | 26 | 1011.7 |
| 20260504200830 | 12 | 9 | 1.6 | 24.1 | 0.00 | 0.03 | 0.03 | 26 | 1011.7 |
| 20260504200329 | 12 | 345 | 3.2 | 24.1 | 0.00 | 0.03 | 0.03 | 26 | 1011.8 |
| 20260504195831 | 12 | 358 | 8.0 | 20.9 | 0.00 | 0.03 | 0.03 | 26 | 1011.8 |
| 20260504195331 | 12 | 5 | 3.2 | 19.3 | 0.00 | 0.03 | 0.03 | 28 | 1011.9 |
| 20260504194830 | 12 | 54 | 3.2 | 19.3 | 0.00 | 0.03 | 0.03 | 27 | 1011.7 |
| 20260504194330 | 12 | 6 | 4.8 | 19.3 | 0.00 | 0.03 | 0.03 | 27 | 1011.7 |
| 20260504193831 | 12 | 25 | 3.2 | 19.3 | 0.00 | 0.03 | 0.03 | 28 | 1011.7 |